Location: Hochstatterhof
(48.7256°N, 10.3487°E)
Time: 22:26:00
(UTC+00:00)

Helios 1A - Pass Details

Date: 26 September 2023
Orbit: 572 x 586 km, 98.3° (Epoch: 01 December)

Event Time Altitude Azimuth Distance (km) Brightness Sun altitude
Rises 04:06:29 0° 179° (S) 2,808 6.3 -11.3°
Reaches altitude 10° 04:08:42 10° 185° (S) 1,909 5.4 -10.9°
Maximum altitude 04:12:42 47° 260° (W) 784 3.2 -10.3°
Drops below altitude 10° 04:16:36 11° 334° (NNW) 1,867 5.4 -9.6°
Sets 04:18:57 0° 341° (NNW) 2,816 6.3 -9.3°
